sat.trackr.live / text

‹ back to catalog

STARLINK-32527

NORAD 62319 · 2024-239U

PAYLOAD ACTIVE UNKNOWN

§ Identity

Operator
Country
US
Launch date
2024-12-13
Launch site
AFWTR
Launch vehicle
Mass (kg)
RCS (m²)

Purposes: comms

External: N2YO · Heavens-Above · Gunter

§ Orbital elements

Epoch: 2026-05-25T03:22:11.449056Z

Period
94.11 min
Inclination
53.1576°
Eccentricity
0.0001097
Mean motion
15.30204502 rev/d
Perigee alt
474.4 km
Apogee alt
476.0 km
Semi-major
6,853.3 km
B*
3.7282e-4
RAAN
185.6906°
Arg perigee
77.6558°
Mean anomaly
282.4565°
Rev number
8,127

§ Raw data

STARLINK-325271 62319U 24239U   26145.14041029  .00010700  00000+0  37282-3 0  99922 62319  53.1576 185.6906 0001097  77.6558 282.4565 15.30204502 81272

JSON: /api/v1/satellites/62319 · /tle

For live sub-satellite position, see the globe view (requires WebGL).

§ Visibility from observer

Set your observer location to see the next 7 days of passes ≥ 10°. The values pass through the URL so the page stays shareable.

No JS? Fill the form by hand. The geolocation button needs JavaScript.